Location: Killam
(52.7910°N, 111.8608°W)
Time: 05:31:14
(UTC+00:00)

Gurwin Techsat 1B - Pass Details

Date: 14 March 2026
Orbit: 809 x 812 km, 99.0° (Epoch: 15 April)

Event Time Altitude Azimuth Distance (km) Brightness Sun altitude
Rises 11:12:23 0° 28° (NNE) 3,343 12.7 -22.9°
Reaches altitude 10° 11:15:42 10° 49° (NE) 2,405 12.1 -22.5°
Maximum altitude 11:18:54 16° 87° (E) 2,008 11.5 -22.0°
Drops below altitude 10° 11:22:06 10° 124° (SE) 2,394 11.4 -21.6°
Sets 11:25:23 0° 146° (SE) 3,319 11.9 -21.2°
